Time,TemperatureF,DewpointF,PressureIn,WindDirection,WindDirectionDegrees,WindSpeedMPH,WindSpeedGustMPH,Humidity,HourlyPrecipIn,Conditions,Clouds,dailyrainin,SoftwareType,DateUTC
2013-05-14 00:01:00,49.1,43.2,30.13,North,355,0.0,0.0,80,0.00,CLR,,0.00,WeatherDisplay:10.37,2013-05-14 04:01:00,
2013-05-14 00:02:00,49.0,43.1,30.13,North,355,0.0,0.0,80,0.00,CLR,,0.00,WeatherDisplay:10.37,2013-05-14 04:02:00,
2013-05-14 00:06:00,48.5,42.9,30.13,North,355,0.0,0.0,81,0.00,CLR,,0.00,WeatherDisplay:10.37,2013-05-14 04:06:00,
2013-05-14 00:11:00,47.9,42.3,30.13,North,355,0.0,0.0,81,0.00,CLR,,0.00,WeatherDisplay:10.37,2013-05-14 04:11:00,
2013-05-14 00:16:00,47.7,42.5,30.14,North,355,0.0,0.0,82,0.00,CLR,,0.00,WeatherDisplay:10.37,2013-05-14 04:16:00,
2013-05-14 00:21:00,47.7,43.1,30.14,North,355,0.0,0.0,84,0.00,CLR,,0.00,WeatherDisplay:10.37,2013-05-14 04:21:00,
2013-05-14 00:26:00,47.5,42.9,30.14,North,355,0.0,0.0,84,0.00,CLR,,0.00,WeatherDisplay:10.37,2013-05-14 04:26:00,
2013-05-14 00:31:00,47.6,43.3,30.14,North,355,0.0,0.0,85,0.00,CLR,,0.00,WeatherDisplay:10.37,2013-05-14 04:31:00,
2013-05-14 00:36:00,47.5,43.2,30.14,North,355,0.0,0.0,85,0.00,CLR,,0.00,WeatherDisplay:10.37,2013-05-14 04:36:00,
2013-05-14 00:41:00,47.6,43.3,30.14,North,355,0.0,0.0,85,0.00,CLR,,0.00,WeatherDisplay:10.37,2013-05-14 04:41:00,
2013-05-14 00:46:00,47.5,43.2,30.14,North,355,0.0,0.0,85,0.00,CLR,,0.00,WeatherDisplay:10.37,2013-05-14 04:46:00,
2013-05-14 00:51:00,47.4,42.8,30.14,North,355,0.0,0.0,84,0.00,CLR,,0.00,WeatherDisplay:10.37,2013-05-14 04:51:00,
2013-05-14 00:56:00,47.4,43.1,30.14,North,355,0.0,0.0,85,0.00,CLR,,0.00,WeatherDisplay:10.37,2013-05-14 04:56:00,
2013-05-14 01:01:00,47.0,42.7,30.14,North,355,0.0,0.0,85,0.00,CLR,,0.00,WeatherDisplay:10.37,2013-05-14 05:01:00,
2013-05-14 01:06:00,46.8,42.5,30.14,North,355,0.0,0.0,85,0.00,CLR,,0.00,WeatherDisplay:10.37,2013-05-14 05:06:00,
2013-05-14 01:11:00,46.6,42.3,30.14,North,355,0.0,0.0,85,0.00,CLR,,0.00,WeatherDisplay:10.37,2013-05-14 05:11:00,
2013-05-14 01:16:00,46.2,42.2,30.14,North,355,0.0,0.0,86,0.00,CLR,,0.00,WeatherDisplay:10.37,2013-05-14 05:16:00,
2013-05-14 01:21:00,45.9,42.2,30.14,North,355,0.0,0.0,87,0.00,CLR,,0.00,WeatherDisplay:10.37,2013-05-14 05:21:00,
2013-05-14 01:26:00,45.8,42.4,30.14,North,355,0.0,0.0,88,0.00,CLR,,0.00,WeatherDisplay:10.37,2013-05-14 05:26:00,
2013-05-14 01:31:00,45.5,42.2,30.14,North,355,0.0,0.0,88,0.00,CLR,,0.00,WeatherDisplay:10.37,2013-05-14 05:31:00,
2013-05-14 01:36:00,45.4,42.1,30.14,North,355,0.0,0.0,88,0.00,CLR,,0.00,WeatherDisplay:10.37,2013-05-14 05:36:00,
2013-05-14 01:41:00,45.0,42.0,30.14,North,355,0.0,0.0,89,0.00,CLR,,0.00,WeatherDisplay:10.37,2013-05-14 05:41:00,
2013-05-14 01:46:00,44.8,41.8,30.14,North,355,0.0,0.0,89,0.00,CLR,,0.00,WeatherDisplay:10.37,2013-05-14 05:46:00,
2013-05-14 01:51:00,44.6,41.6,30.14,North,355,0.0,0.0,89,0.00,CLR,,0.00,WeatherDisplay:10.37,2013-05-14 05:51:00,
2013-05-14 01:56:00,44.5,41.5,30.14,North,355,0.0,0.0,89,0.00,CLR,,0.00,WeatherDisplay:10.37,2013-05-14 05:56:00,
2013-05-14 02:01:00,44.4,41.4,30.14,North,355,0.0,0.0,89,0.00,CLR,,0.00,WeatherDisplay:10.37,2013-05-14 06:01:00,
2013-05-14 02:07:00,44.4,41.9,30.14,North,355,0.0,0.0,91,0.00,CLR,,0.00,WeatherDisplay:10.37,2013-05-14 06:07:00,
2013-05-14 02:12:00,44.2,41.7,30.14,North,355,0.0,0.0,91,0.00,CLR,,0.00,WeatherDisplay:10.37,2013-05-14 06:12:00,
2013-05-14 02:17:00,44.2,41.7,30.14,North,355,0.0,0.0,91,0.00,CLR,,0.00,WeatherDisplay:10.37,2013-05-14 06:17:00,
2013-05-14 02:22:00,44.0,41.5,30.14,North,355,0.0,0.0,91,0.00,CLR,,0.00,WeatherDisplay:10.37,2013-05-14 06:22:00,
2013-05-14 02:27:00,44.0,41.8,30.14,North,355,0.0,0.0,92,0.00,CLR,,0.00,WeatherDisplay:10.37,2013-05-14 06:27:00,
2013-05-14 02:32:00,43.9,41.7,30.14,North,355,0.0,0.0,92,0.00,CLR,,0.00,WeatherDisplay:10.37,2013-05-14 06:32:00,
2013-05-14 02:37:00,43.7,41.5,30.14,North,355,0.0,0.0,92,0.00,CLR,,0.00,WeatherDisplay:10.37,2013-05-14 06:37:00,
2013-05-14 02:42:00,43.4,41.2,30.14,North,355,0.0,0.0,92,0.00,CLR,,0.00,WeatherDisplay:10.37,2013-05-14 06:42:00,
2013-05-14 02:47:00,43.4,41.5,30.13,North,355,0.0,0.0,93,0.00,CLR,,0.00,WeatherDisplay:10.37,2013-05-14 06:47:00,
2013-05-14 02:52:00,43.4,41.5,30.13,North,355,0.0,0.0,93,0.00,CLR,,0.00,WeatherDisplay:10.37,2013-05-14 06:52:00,
2013-05-14 02:57:00,43.0,41.1,30.14,North,355,0.0,0.0,93,0.00,CLR,,0.00,WeatherDisplay:10.37,2013-05-14 06:57:00,
2013-05-14 03:02:00,42.5,40.6,30.14,North,355,0.0,0.0,93,0.00,CLR,,0.00,WeatherDisplay:10.37,2013-05-14 07:02:00,
2013-05-14 03:07:00,42.2,40.3,30.14,North,355,0.0,0.0,93,0.00,CLR,,0.00,WeatherDisplay:10.37,2013-05-14 07:07:00,
2013-05-14 03:12:00,41.8,39.9,30.14,North,355,0.0,0.0,93,0.00,CLR,,0.00,WeatherDisplay:10.37,2013-05-14 07:12:00,
2013-05-14 03:17:00,41.7,39.8,30.14,North,355,0.0,0.0,93,0.00,CLR,,0.00,WeatherDisplay:10.37,2013-05-14 07:17:00,
2013-05-14 03:22:00,41.7,39.8,30.14,North,355,0.0,0.0,93,0.00,CLR,,0.00,WeatherDisplay:10.37,2013-05-14 07:22:00,
2013-05-14 03:27:00,41.5,39.6,30.14,North,355,0.0,0.0,93,0.00,CLR,,0.00,WeatherDisplay:10.37,2013-05-14 07:27:00,
2013-05-14 03:32:00,41.3,39.4,30.15,North,355,0.0,0.0,93,0.00,CLR,,0.00,WeatherDisplay:10.37,2013-05-14 07:32:00,
2013-05-14 03:37:00,41.2,39.3,30.15,North,355,0.0,0.0,93,0.00,CLR,,0.00,WeatherDisplay:10.37,2013-05-14 07:37:00,
2013-05-14 03:42:00,41.0,39.1,30.15,North,355,0.0,0.0,93,0.00,CLR,,0.00,WeatherDisplay:10.37,2013-05-14 07:42:00,
2013-05-14 03:47:00,40.7,38.8,30.15,North,355,0.0,0.0,93,0.00,CLR,,0.00,WeatherDisplay:10.37,2013-05-14 07:47:00,
2013-05-14 03:52:00,40.5,38.6,30.15,North,355,0.0,0.0,93,0.00,CLR,,0.00,WeatherDisplay:10.37,2013-05-14 07:52:00,
2013-05-14 03:57:00,40.3,38.7,30.15,North,355,0.0,0.0,94,0.00,CLR,,0.00,WeatherDisplay:10.37,2013-05-14 07:57:00,
2013-05-14 04:02:00,40.3,38.7,30.15,North,355,0.0,0.0,94,0.00,CLR,,0.00,WeatherDisplay:10.37,2013-05-14 08:02:00,
2013-05-14 04:07:00,40.2,38.6,30.15,North,355,0.0,0.0,94,0.00,CLR,,0.00,WeatherDisplay:10.37,2013-05-14 08:07:00,
2013-05-14 04:12:00,40.2,38.6,30.15,North,355,0.0,0.0,94,0.00,CLR,,0.00,WeatherDisplay:10.37,2013-05-14 08:12:00,
2013-05-14 04:17:00,40.2,38.6,30.15,North,355,0.0,0.0,94,0.00,CLR,,0.00,WeatherDisplay:10.37,2013-05-14 08:17:00,
2013-05-14 04:22:00,40.2,38.6,30.15,North,355,0.0,0.0,94,0.00,CLR,,0.00,WeatherDisplay:10.37,2013-05-14 08:22:00,
2013-05-14 04:27:00,40.0,38.4,30.15,North,355,0.0,0.0,94,0.00,CLR,,0.00,WeatherDisplay:10.37,2013-05-14 08:27:00,
2013-05-14 04:32:00,40.0,38.4,30.15,North,355,0.0,0.0,94,0.00,CLR,,0.00,WeatherDisplay:10.37,2013-05-14 08:32:00,
2013-05-14 04:37:00,39.9,38.3,30.16,North,355,0.0,0.0,94,0.00,CLR,,0.00,WeatherDisplay:10.37,2013-05-14 08:37:00,
2013-05-14 04:42:00,39.9,38.3,30.16,North,355,0.0,0.0,94,0.00,CLR,,0.00,WeatherDisplay:10.37,2013-05-14 08:42:00,
2013-05-14 04:47:00,39.8,38.2,30.16,North,355,0.0,0.0,94,0.00,CLR,,0.00,WeatherDisplay:10.37,2013-05-14 08:47:00,
2013-05-14 04:52:00,40.0,38.4,30.16,North,355,0.0,0.0,94,0.00,CLR,,0.00,WeatherDisplay:10.37,2013-05-14 08:52:00,
2013-05-14 04:57:00,40.2,38.6,30.16,North,355,0.0,0.0,94,0.00,CLR,,0.00,WeatherDisplay:10.37,2013-05-14 08:57:00,
2013-05-14 05:02:00,40.4,38.8,30.16,North,355,0.0,0.0,94,0.00,CLR,,0.00,WeatherDisplay:10.37,2013-05-14 09:02:00,
2013-05-14 05:07:00,40.1,38.5,30.16,North,355,0.0,0.0,94,0.00,CLR,,0.00,WeatherDisplay:10.37,2013-05-14 09:07:00,
2013-05-14 05:12:00,40.0,38.4,30.16,North,355,0.0,0.0,94,0.00,CLR,,0.00,WeatherDisplay:10.37,2013-05-14 09:12:00,
2013-05-14 05:17:00,40.2,38.6,30.16,North,355,0.0,0.0,94,0.00,CLR,,0.00,WeatherDisplay:10.37,2013-05-14 09:17:00,
2013-05-14 05:22:00,40.3,38.7,30.16,North,355,0.0,0.0,94,0.00,CLR,,0.00,WeatherDisplay:10.37,2013-05-14 09:22:00,
2013-05-14 05:27:00,40.2,38.6,30.16,North,355,0.0,0.0,94,0.00,CLR,,0.00,WeatherDisplay:10.37,2013-05-14 09:27:00,
2013-05-14 05:32:00,39.9,38.3,30.16,North,355,0.0,0.0,94,0.00,CLR,,0.00,WeatherDisplay:10.37,2013-05-14 09:32:00,
2013-05-14 05:37:00,39.8,38.2,30.16,North,355,0.0,0.0,94,0.00,CLR,,0.00,WeatherDisplay:10.37,2013-05-14 09:37:00,
2013-05-14 05:42:00,39.7,38.1,30.16,North,355,0.0,0.0,94,0.00,CLR,,0.00,WeatherDisplay:10.37,2013-05-14 09:42:00,
2013-05-14 05:47:00,39.4,37.8,30.17,North,355,0.0,0.0,94,0.00,CLR,,0.00,WeatherDisplay:10.37,2013-05-14 09:47:00,
2013-05-14 05:52:00,39.4,37.8,30.17,North,355,0.0,0.0,94,0.00,CLR,,0.00,WeatherDisplay:10.37,2013-05-14 09:52:00,
2013-05-14 05:57:00,39.3,37.7,30.17,North,355,0.0,0.0,94,0.00,CLR,,0.00,WeatherDisplay:10.37,2013-05-14 09:57:00,
2013-05-14 06:02:00,39.3,37.7,30.17,North,360,0.0,0.0,94,0.00,CLR,,0.00,WeatherDisplay:10.37,2013-05-14 10:02:00,
2013-05-14 06:08:00,39.5,37.9,30.17,North,360,0.0,0.0,94,0.00,CLR,,0.00,WeatherDisplay:10.37,2013-05-14 10:08:00,
2013-05-14 06:13:00,39.4,37.8,30.17,North,360,0.0,0.0,94,0.00,CLR,,0.00,WeatherDisplay:10.37,2013-05-14 10:13:00,
2013-05-14 06:18:00,39.1,37.5,30.17,North,360,0.0,0.0,94,0.00,CLR,,0.00,WeatherDisplay:10.37,2013-05-14 10:18:00,
2013-05-14 06:23:00,38.9,37.3,30.18,North,360,0.0,0.0,94,0.00,CLR,,0.00,WeatherDisplay:10.37,2013-05-14 10:23:00,
2013-05-14 06:28:00,38.7,37.1,30.18,North,360,0.0,0.0,94,0.00,CLR,,0.00,WeatherDisplay:10.37,2013-05-14 10:28:00,
2013-05-14 06:33:00,39.0,37.4,30.18,North,360,0.0,0.0,94,0.00,CLR,,0.00,WeatherDisplay:10.37,2013-05-14 10:33:00,
2013-05-14 06:38:00,39.2,37.6,30.18,NNE,22,0.0,0.0,94,0.00,CLR,,0.00,WeatherDisplay:10.37,2013-05-14 10:38:00,
2013-05-14 06:43:00,39.2,37.6,30.18,NNE,22,0.0,0.0,94,0.00,CLR,,0.00,WeatherDisplay:10.37,2013-05-14 10:43:00,
2013-05-14 06:48:00,39.3,37.7,30.19,NNE,22,0.0,0.0,94,0.00,CLR,,0.00,WeatherDisplay:10.37,2013-05-14 10:48:00,
2013-05-14 06:53:00,39.5,37.9,30.19,NNE,21,0.0,0.0,94,0.00,CLR,,0.00,WeatherDisplay:10.37,2013-05-14 10:53:00,
2013-05-14 06:58:00,39.7,38.1,30.19,NNE,21,0.0,0.0,94,0.00,CLR,,0.00,WeatherDisplay:10.37,2013-05-14 10:58:00,
2013-05-14 07:03:00,39.9,38.3,30.19,NNE,22,0.0,0.0,94,0.00,CLR,,0.00,WeatherDisplay:10.37,2013-05-14 11:03:00,
2013-05-14 07:08:00,40.2,38.6,30.19,NNE,22,0.0,0.0,94,0.00,CLR,,0.00,WeatherDisplay:10.37,2013-05-14 11:08:00,
2013-05-14 07:13:00,40.5,38.9,30.19,NNE,23,0.0,0.0,94,0.00,CLR,,0.00,WeatherDisplay:10.37,2013-05-14 11:13:00,
2013-05-14 07:18:00,41.1,39.5,30.19,NNE,23,0.0,0.0,94,0.00,CLR,,0.00,WeatherDisplay:10.37,2013-05-14 11:18:00,
2013-05-14 07:23:00,42.8,41.5,30.19,NE,40,0.0,0.0,95,0.00,CLR,,0.00,WeatherDisplay:10.37,2013-05-14 11:23:00,
2013-05-14 07:28:00,43.5,42.2,30.19,NE,40,0.0,0.0,95,0.00,CLR,,0.00,WeatherDisplay:10.37,2013-05-14 11:28:00,
2013-05-14 07:33:00,44.3,43.0,30.19,NE,40,0.0,0.0,95,0.00,CLR,,0.00,WeatherDisplay:10.37,2013-05-14 11:33:00,
2013-05-14 07:38:00,45.2,43.9,30.19,NE,40,0.0,0.0,95,0.00,CLR,,0.00,WeatherDisplay:10.37,2013-05-14 11:38:00,
2013-05-14 07:43:00,46.2,44.6,30.19,ENE,58,0.0,0.0,94,0.00,CLR,,0.00,WeatherDisplay:10.37,2013-05-14 11:43:00,
2013-05-14 07:48:00,47.2,45.6,30.19,ENE,58,1.2,0.0,94,0.00,CLR,,0.00,WeatherDisplay:10.37,2013-05-14 11:48:00,
2013-05-14 07:53:00,48.2,46.0,30.19,NE,53,0.0,0.0,92,0.00,CLR,,0.00,WeatherDisplay:10.37,2013-05-14 11:53:00,
2013-05-14 07:58:00,49.3,45.3,30.19,NE,53,0.0,0.0,86,0.00,CLR,,0.00,WeatherDisplay:10.37,2013-05-14 11:58:00,
2013-05-14 08:03:00,50.6,45.0,30.20,NE,53,1.2,1.2,81,0.00,CLR,,0.00,WeatherDisplay:10.37,2013-05-14 12:03:00,
2013-05-14 08:08:00,51.3,44.0,30.20,NE,53,0.0,0.0,76,0.00,CLR,,0.00,WeatherDisplay:10.37,2013-05-14 12:08:00,
2013-05-14 08:13:00,52.2,43.1,30.20,North,5,1.0,0.0,71,0.00,CLR,,0.00,WeatherDisplay:10.37,2013-05-14 12:13:00,
2013-05-14 08:18:00,53.2,43.3,30.20,North,5,0.0,0.0,69,0.00,CLR,,0.00,WeatherDisplay:10.37,2013-05-14 12:18:00,
2013-05-14 08:23:00,53.2,42.1,30.20,North,9,2.3,2.3,66,0.00,CLR,,0.00,WeatherDisplay:10.37,2013-05-14 12:23:00,
2013-05-14 08:28:00,53.7,41.0,30.20,North,9,2.3,2.3,62,0.00,CLR,,0.00,WeatherDisplay:10.37,2013-05-14 12:28:00,
2013-05-14 08:33:00,54.0,41.7,30.20,North,9,0.0,0.0,63,0.00,CLR,,0.00,WeatherDisplay:10.37,2013-05-14 12:33:00,
2013-05-14 08:38:00,54.3,41.6,30.20,North,9,1.2,1.2,62,0.00,CLR,,0.00,WeatherDisplay:10.37,2013-05-14 12:38:00,
2013-05-14 08:43:00,55.1,39.7,30.20,North,9,1.2,1.2,56,0.00,CLR,,0.00,WeatherDisplay:10.37,2013-05-14 12:43:00,
2013-05-14 08:48:00,54.9,40.4,30.20,North,5,0.0,0.0,58,0.00,CLR,,0.00,WeatherDisplay:10.37,2013-05-14 12:48:00,
2013-05-14 08:53:00,55.1,40.6,30.20,North,5,1.2,1.2,58,0.00,CLR,,0.00,WeatherDisplay:10.37,2013-05-14 12:53:00,
2013-05-14 08:58:00,54.9,40.4,30.20,North,360,1.0,1.0,58,0.00,CLR,,0.00,WeatherDisplay:10.37,2013-05-14 12:58:00,
2013-05-14 09:03:00,55.0,39.6,30.20,North,5,0.0,0.0,56,0.00,CLR,,0.00,WeatherDisplay:10.37,2013-05-14 13:03:00,
2013-05-14 09:08:00,55.2,40.2,30.20,North,5,0.0,0.0,57,0.00,CLR,,0.00,WeatherDisplay:10.37,2013-05-14 13:08:00,
2013-05-14 09:13:00,55.8,39.4,30.19,North,355,2.3,2.3,54,0.00,CLR,,0.00,WeatherDisplay:10.37,2013-05-14 13:13:00,
2013-05-14 09:18:00,56.2,41.2,30.20,ENE,76,1.2,0.0,57,0.00,CLR,,0.00,WeatherDisplay:10.37,2013-05-14 13:18:00,
2013-05-14 09:23:00,56.8,41.7,30.19,ESE,106,1.2,1.2,57,0.00,CLR,,0.00,WeatherDisplay:10.37,2013-05-14 13:23:00,
2013-05-14 09:28:00,56.4,41.3,30.19,ESE,117,3.5,3.5,57,0.00,CLR,,0.00,WeatherDisplay:10.37,2013-05-14 13:28:00,
2013-05-14 09:33:00,56.2,39.8,30.19,ESE,118,1.2,0.0,54,0.00,CLR,,0.00,WeatherDisplay:10.37,2013-05-14 13:33:00,
2013-05-14 09:38:00,56.9,41.8,30.19,ESE,118,0.0,0.0,57,0.00,CLR,,0.00,WeatherDisplay:10.37,2013-05-14 13:38:00,
2013-05-14 09:43:00,57.8,40.3,30.19,East,88,0.0,0.0,52,0.00,CLR,,0.00,WeatherDisplay:10.37,2013-05-14 13:43:00,
2013-05-14 09:48:00,57.9,37.8,30.19,ENE,76,3.5,3.5,47,0.00,CLR,,0.00,WeatherDisplay:10.37,2013-05-14 13:48:00,
2013-05-14 09:53:00,57.8,38.8,30.19,NNW,329,1.2,1.2,49,0.00,CLR,,0.00,WeatherDisplay:10.37,2013-05-14 13:53:00,
2013-05-14 09:58:00,57.1,37.6,30.19,West,261,3.5,0.0,48,0.00,CLR,,0.00,WeatherDisplay:10.37,2013-05-14 13:58:00,
2013-05-14 10:03:00,57.5,38.5,30.19,WSW,258,4.0,4.0,49,0.00,CLR,,0.00,WeatherDisplay:10.37,2013-05-14 14:03:00,
2013-05-14 10:08:00,57.8,37.7,30.19,SW,232,5.0,5.0,47,0.00,CLR,,0.00,WeatherDisplay:10.37,2013-05-14 14:08:00,
2013-05-14 10:13:00,58.1,40.1,30.19,SW,233,0.0,0.0,51,0.00,CLR,,0.00,WeatherDisplay:10.37,2013-05-14 14:13:00,
2013-05-14 10:19:00,58.8,38.6,30.20,SW,236,1.2,0.0,47,0.00,CLR,,0.00,WeatherDisplay:10.37,2013-05-14 14:19:00,
2013-05-14 10:24:00,59.0,38.8,30.20,SW,218,4.6,4.6,47,0.00,CLR,,0.00,WeatherDisplay:10.37,2013-05-14 14:24:00,
2013-05-14 10:29:00,59.4,39.7,30.20,SW,218,5.0,5.0,48,0.00,CLR,,0.00,WeatherDisplay:10.37,2013-05-14 14:29:00,
2013-05-14 10:34:00,59.0,38.2,30.20,West,281,6.0,6.0,46,0.00,CLR,,0.00,WeatherDisplay:10.37,2013-05-14 14:34:00,
2013-05-14 10:39:00,59.3,36.8,30.20,WSW,241,5.8,5.8,43,0.00,CLR,,0.00,WeatherDisplay:10.37,2013-05-14 14:39:00,
2013-05-14 10:44:00,59.4,36.3,30.20,WSW,241,1.0,0.0,42,0.00,CLR,,0.00,WeatherDisplay:10.37,2013-05-14 14:44:00,
2013-05-14 10:49:00,59.7,37.7,30.20,SW,234,1.2,0.0,44,0.00,CLR,,0.00,WeatherDisplay:10.37,2013-05-14 14:49:00,
2013-05-14 10:54:00,59.8,39.0,30.20,SSW,198,1.2,1.2,46,0.00,CLR,,0.00,WeatherDisplay:10.37,2013-05-14 14:54:00,
2013-05-14 10:59:00,60.7,39.2,30.20,NW,325,5.0,5.0,45,0.00,CLR,,0.00,WeatherDisplay:10.37,2013-05-14 14:59:00,
2013-05-14 11:04:00,61.1,38.4,30.20,NW,307,1.2,1.2,43,0.00,CLR,,0.00,WeatherDisplay:10.37,2013-05-14 15:04:00,
2013-05-14 11:09:00,61.1,38.4,30.20,SW,235,9.2,9.2,43,0.00,CLR,,0.00,WeatherDisplay:10.37,2013-05-14 15:09:00,
2013-05-14 11:14:00,61.0,37.7,30.20,West,271,5.8,5.8,42,0.00,CLR,,0.00,WeatherDisplay:10.37,2013-05-14 15:14:00,
2013-05-14 11:19:00,60.8,37.5,30.19,SSW,210,10.0,10.0,42,0.00,CLR,,0.00,WeatherDisplay:10.37,2013-05-14 15:19:00,
2013-05-14 11:24:00,61.9,39.1,30.20,WSW,247,7.0,7.0,43,0.00,CLR,,0.00,WeatherDisplay:10.37,2013-05-14 15:24:00,
2013-05-14 11:29:00,61.6,41.7,30.19,SSW,205,3.5,3.5,48,0.00,CLR,,0.00,WeatherDisplay:10.37,2013-05-14 15:29:00,
2013-05-14 11:34:00,61.8,39.6,30.19,SW,220,6.0,6.0,44,0.00,CLR,,0.00,WeatherDisplay:10.37,2013-05-14 15:34:00,
2013-05-14 11:39:00,61.8,40.8,30.19,SSW,210,12.0,12.0,46,0.00,CLR,,0.00,WeatherDisplay:10.37,2013-05-14 15:39:00,
2013-05-14 11:44:00,61.7,39.0,30.19,South,176,3.0,3.0,43,0.00,CLR,,0.00,WeatherDisplay:10.37,2013-05-14 15:44:00,
2013-05-14 11:49:00,62.1,41.1,30.19,SE,144,4.6,4.6,46,0.00,CLR,,0.00,WeatherDisplay:10.37,2013-05-14 15:49:00,
2013-05-14 11:54:00,63.1,40.8,30.18,SSW,202,8.1,8.1,44,0.00,CLR,,0.00,WeatherDisplay:10.37,2013-05-14 15:54:00,
2013-05-14 11:59:00,62.6,40.4,30.19,SSW,213,1.2,0.0,44,0.00,CLR,,0.00,WeatherDisplay:10.37,2013-05-14 15:59:00,
2013-05-14 12:04:00,62.7,41.6,30.19,WSW,246,6.0,6.0,46,0.00,CLR,,0.00,WeatherDisplay:10.37,2013-05-14 16:04:00,
2013-05-14 12:09:00,63.1,40.8,30.18,West,280,7.0,7.0,44,0.00,CLR,,0.00,WeatherDisplay:10.37,2013-05-14 16:09:00,
2013-05-14 12:14:00,63.7,40.2,30.18,SW,234,1.2,0.0,42,0.00,CLR,,0.00,WeatherDisplay:10.37,2013-05-14 16:14:00,
2013-05-14 12:19:00,64.3,40.7,30.18,WSW,252,6.9,6.9,42,0.00,CLR,,0.00,WeatherDisplay:10.37,2013-05-14 16:19:00,
2013-05-14 12:24:00,64.0,39.8,30.18,WNW,292,4.6,4.6,41,0.00,CLR,,0.00,WeatherDisplay:10.37,2013-05-14 16:24:00,
2013-05-14 12:29:00,64.4,40.2,30.18,West,269,6.9,6.9,41,0.00,CLR,,0.00,WeatherDisplay:10.37,2013-05-14 16:29:00,
2013-05-14 12:34:00,64.2,43.0,30.17,SSW,202,11.0,11.0,46,0.00,CLR,,0.00,WeatherDisplay:10.37,2013-05-14 16:34:00,
2013-05-14 12:39:00,63.9,38.4,30.17,WSW,257,11.5,11.5,39,0.00,CLR,,0.00,WeatherDisplay:10.37,2013-05-14 16:39:00,
2013-05-14 12:44:00,64.3,39.4,30.16,West,277,11.5,11.5,40,0.00,CLR,,0.00,WeatherDisplay:10.37,2013-05-14 16:44:00,
2013-05-14 12:49:00,65.2,39.6,30.16,West,275,3.5,3.5,39,0.00,CLR,,0.00,WeatherDisplay:10.37,2013-05-14 16:49:00,
2013-05-14 12:54:00,65.4,42.3,30.15,South,186,5.0,5.0,43,0.00,CLR,,0.00,WeatherDisplay:10.37,2013-05-14 16:54:00,
2013-05-14 12:59:00,65.0,38.8,30.15,SSW,205,11.0,11.0,38,0.00,CLR,,0.00,WeatherDisplay:10.37,2013-05-14 16:59:00,
2013-05-14 13:04:00,64.9,40.0,30.15,WNW,296,11.5,11.5,40,0.00,CLR,,0.00,WeatherDisplay:10.37,2013-05-14 17:04:00,
2013-05-14 13:09:00,65.6,40.6,30.14,SSW,204,11.5,11.5,40,0.00,CLR,,0.00,WeatherDisplay:10.37,2013-05-14 17:09:00,
2013-05-14 13:14:00,65.4,38.4,30.15,SW,227,12.7,12.7,37,0.00,CLR,,0.00,WeatherDisplay:10.37,2013-05-14 17:14:00,
2013-05-14 13:19:00,65.3,38.3,30.14,SW,214,11.5,11.5,37,0.00,CLR,,0.00,WeatherDisplay:10.37,2013-05-14 17:19:00,
2013-05-14 13:24:00,65.5,41.2,30.14,West,277,3.5,0.0,41,0.00,CLR,,0.00,WeatherDisplay:10.37,2013-05-14 17:24:00,
2013-05-14 13:29:00,66.2,39.8,30.14,West,260,6.9,6.9,38,0.00,CLR,,0.00,WeatherDisplay:10.37,2013-05-14 17:29:00,
2013-05-14 13:34:00,65.9,40.9,30.14,West,273,4.0,4.0,40,0.00,CLR,,0.00,WeatherDisplay:10.37,2013-05-14 17:34:00,
2013-05-14 13:39:00,66.3,40.6,30.14,West,269,5.8,5.8,39,0.00,CLR,,0.00,WeatherDisplay:10.37,2013-05-14 17:39:00,
2013-05-14 13:44:00,65.6,35.7,30.14,SW,225,2.3,2.3,33,0.00,CLR,,0.00,WeatherDisplay:10.37,2013-05-14 17:44:00,
2013-05-14 13:49:00,66.3,39.9,30.14,NNW,340,4.0,4.0,38,0.00,CLR,,0.00,WeatherDisplay:10.37,2013-05-14 17:49:00,
2013-05-14 13:54:00,67.7,39.0,30.13,WSW,245,7.0,7.0,35,0.00,CLR,,0.00,WeatherDisplay:10.37,2013-05-14 17:54:00,
2013-05-14 13:59:00,67.4,36.5,30.13,WSW,243,4.6,4.6,32,0.00,CLR,,0.00,WeatherDisplay:10.37,2013-05-14 17:59:00,
2013-05-14 14:04:00,67.9,42.0,30.13,West,279,3.5,3.5,39,0.00,CLR,,0.00,WeatherDisplay:10.37,2013-05-14 18:04:00,
2013-05-14 14:09:00,68.9,39.4,30.14,WSW,252,10.0,10.0,34,0.00,CLR,,0.00,WeatherDisplay:10.37,2013-05-14 18:09:00,
2013-05-14 14:14:00,68.5,39.8,30.13,NW,320,11.0,11.0,35,0.00,CLR,,0.00,WeatherDisplay:10.37,2013-05-14 18:14:00,
2013-05-14 14:19:00,68.1,39.4,30.12,WNW,291,4.0,4.0,35,0.00,CLR,,0.00,WeatherDisplay:10.37,2013-05-14 18:19:00,
2013-05-14 14:24:00,68.2,35.6,30.12,WNW,299,3.5,3.5,30,0.00,CLR,,0.00,WeatherDisplay:10.37,2013-05-14 18:24:00,
2013-05-14 14:29:00,68.2,39.5,30.12,WSW,240,9.2,9.2,35,0.00,CLR,,0.00,WeatherDisplay:10.37,2013-05-14 18:29:00,
2013-05-14 14:34:00,68.3,40.3,30.11,South,183,9.0,9.0,36,0.00,CLR,,0.00,WeatherDisplay:10.37,2013-05-14 18:34:00,
2013-05-14 14:39:00,68.0,39.3,30.11,SW,222,6.9,6.9,35,0.00,CLR,,0.00,WeatherDisplay:10.37,2013-05-14 18:39:00,
2013-05-14 14:44:00,69.0,40.9,30.10,NW,309,4.6,4.6,36,0.00,CLR,,0.00,WeatherDisplay:10.37,2013-05-14 18:44:00,
2013-05-14 14:49:00,69.3,38.9,30.10,WNW,283,3.0,3.0,33,0.00,CLR,,0.00,WeatherDisplay:10.37,2013-05-14 18:49:00,
2013-05-14 14:54:00,69.4,39.8,30.10,West,275,5.8,5.8,34,0.00,CLR,,0.00,WeatherDisplay:10.37,2013-05-14 18:54:00,
2013-05-14 14:59:00,70.6,39.3,30.10,SSW,204,11.0,11.0,32,0.00,CLR,,0.00,WeatherDisplay:10.37,2013-05-14 18:59:00,
2013-05-14 15:04:00,68.7,37.6,30.09,South,175,6.0,6.0,32,0.00,CLR,,0.00,WeatherDisplay:10.37,2013-05-14 19:04:00,
2013-05-14 15:09:00,69.3,42.6,30.09,SW,221,3.5,3.5,38,0.00,CLR,,0.00,WeatherDisplay:10.37,2013-05-14 19:09:00,
2013-05-14 15:14:00,69.3,36.5,30.09,West,273,7.0,7.0,30,0.00,CLR,,0.00,WeatherDisplay:10.37,2013-05-14 19:14:00,
2013-05-14 15:19:00,68.8,37.7,30.09,WNW,292,4.6,4.6,32,0.00,CLR,,0.00,WeatherDisplay:10.37,2013-05-14 19:19:00,
2013-05-14 15:24:00,69.0,37.1,30.08,SSW,194,6.9,6.9,31,0.00,CLR,,0.00,WeatherDisplay:10.37,2013-05-14 19:24:00,
2013-05-14 15:29:00,69.3,38.2,30.08,West,272,3.5,3.5,32,0.00,CLR,,0.00,WeatherDisplay:10.37,2013-05-14 19:29:00,
2013-05-14 15:34:00,68.7,38.4,30.08,West,272,3.5,3.5,33,0.00,CLR,,0.00,WeatherDisplay:10.37,2013-05-14 19:34:00,
2013-05-14 15:39:00,68.0,40.0,30.08,WSW,253,4.6,4.6,36,0.00,CLR,,0.00,WeatherDisplay:10.37,2013-05-14 19:39:00,
2013-05-14 15:44:00,67.3,38.7,30.08,WSW,257,3.5,3.5,35,0.00,CLR,,0.00,WeatherDisplay:10.37,2013-05-14 19:44:00,
2013-05-14 15:49:00,67.1,39.9,30.08,WSW,257,2.3,2.3,37,0.00,CLR,,0.00,WeatherDisplay:10.37,2013-05-14 19:49:00,
2013-05-14 15:54:00,66.8,40.4,30.09,SW,230,2.3,2.3,38,0.00,CLR,,0.00,WeatherDisplay:10.37,2013-05-14 19:54:00,
2013-05-14 15:59:00,66.6,39.5,30.08,SW,230,4.6,4.6,37,0.00,CLR,,0.00,WeatherDisplay:10.37,2013-05-14 19:59:00,
2013-05-14 16:04:00,67.0,39.9,30.08,West,271,6.0,6.0,37,0.00,CLR,,0.00,WeatherDisplay:10.37,2013-05-14 20:04:00,
2013-05-14 16:09:00,67.1,39.2,30.08,SW,229,10.4,10.4,36,0.00,CLR,,0.00,WeatherDisplay:10.37,2013-05-14 20:09:00,
2013-05-14 16:14:00,67.4,39.5,30.08,SW,233,10.4,10.4,36,0.00,CLR,,0.00,WeatherDisplay:10.37,2013-05-14 20:14:00,
2013-05-14 16:19:00,67.9,42.7,30.08,SW,227,6.0,6.0,40,0.00,CLR,,0.00,WeatherDisplay:10.37,2013-05-14 20:19:00,
2013-05-14 16:24:00,68.7,41.4,30.08,WSW,237,7.0,7.0,37,0.00,CLR,,0.00,WeatherDisplay:10.37,2013-05-14 20:24:00,
2013-05-14 16:29:00,68.2,40.9,30.08,SW,230,3.5,3.5,37,0.00,CLR,,0.00,WeatherDisplay:10.37,2013-05-14 20:29:00,
2013-05-14 16:34:00,68.3,39.6,30.08,WNW,292,4.6,4.6,35,0.00,CLR,,0.00,WeatherDisplay:10.37,2013-05-14 20:34:00,
2013-05-14 16:39:00,69.0,40.9,30.08,SW,234,6.0,6.0,36,0.00,CLR,,0.00,WeatherDisplay:10.37,2013-05-14 20:39:00,
2013-05-14 16:44:00,69.3,41.9,30.07,NW,321,6.9,6.9,37,0.00,CLR,,0.00,WeatherDisplay:10.37,2013-05-14 20:44:00,
2013-05-14 16:49:00,69.0,39.4,30.07,SW,225,3.5,3.5,34,0.00,CLR,,0.00,WeatherDisplay:10.37,2013-05-14 20:49:00,
2013-05-14 16:55:00,68.5,39.8,30.07,WSW,256,4.0,4.0,35,0.00,CLR,,0.00,WeatherDisplay:10.37,2013-05-14 20:55:00,
2013-05-14 17:00:00,68.8,40.7,30.07,SW,233,10.0,10.0,36,0.00,CLR,,0.00,WeatherDisplay:10.37,2013-05-14 21:00:00,
2013-05-14 17:05:00,69.0,43.7,30.07,SW,225,3.5,3.5,40,0.00,CLR,,0.00,WeatherDisplay:10.37,2013-05-14 21:05:00,
2013-05-14 17:10:00,70.0,41.8,30.07,SSW,209,10.4,10.4,36,0.00,CLR,,0.00,WeatherDisplay:10.37,2013-05-14 21:10:00,
2013-05-14 17:15:00,69.7,40.1,30.07,SW,221,11.5,11.5,34,0.00,CLR,,0.00,WeatherDisplay:10.37,2013-05-14 21:15:00,
2013-05-14 17:20:00,69.4,39.0,30.07,WSW,243,7.0,7.0,33,0.00,CLR,,0.00,WeatherDisplay:10.37,2013-05-14 21:20:00,
2013-05-14 17:25:00,68.8,38.5,30.07,SW,219,11.5,11.5,33,0.00,CLR,,0.00,WeatherDisplay:10.37,2013-05-14 21:25:00,
2013-05-14 17:30:00,68.6,39.8,30.07,SSW,207,6.9,6.9,35,0.00,CLR,,0.00,WeatherDisplay:10.37,2013-05-14 21:30:00,
2013-05-14 17:35:00,67.9,39.2,30.07,SW,225,12.0,12.0,35,0.00,CLR,,0.00,WeatherDisplay:10.37,2013-05-14 21:35:00,
2013-05-14 17:40:00,67.5,40.3,30.07,SSW,211,18.4,18.4,37,0.00,CLR,,0.00,WeatherDisplay:10.37,2013-05-14 21:40:00,
2013-05-14 17:45:00,67.3,40.1,30.06,SSW,211,9.2,9.2,37,0.00,CLR,,0.00,WeatherDisplay:10.37,2013-05-14 21:45:00,
2013-05-14 17:50:00,67.2,40.7,30.06,SW,226,4.6,4.6,38,0.00,CLR,,0.00,WeatherDisplay:10.37,2013-05-14 21:50:00,
2013-05-14 17:55:00,67.2,41.4,30.06,SW,218,4.0,4.0,39,0.00,CLR,,0.00,WeatherDisplay:10.37,2013-05-14 21:55:00,
2013-05-14 18:00:00,67.6,40.4,30.06,SW,225,11.5,11.5,37,0.00,CLR,,0.00,WeatherDisplay:10.37,2013-05-14 22:00:00,
2013-05-14 18:05:00,68.3,40.3,30.06,South,175,5.8,5.8,36,0.00,CLR,,0.00,WeatherDisplay:10.37,2013-05-14 22:05:00,
2013-05-14 18:10:00,68.4,40.4,30.06,SSW,202,5.8,5.8,36,0.00,CLR,,0.00,WeatherDisplay:10.37,2013-05-14 22:10:00,
2013-05-14 18:15:00,67.8,39.9,30.06,SW,227,9.2,9.2,36,0.00,CLR,,0.00,WeatherDisplay:10.37,2013-05-14 22:15:00,
2013-05-14 18:20:00,67.0,41.2,30.06,SSW,206,5.8,5.8,39,0.00,CLR,,0.00,WeatherDisplay:10.37,2013-05-14 22:20:00,
2013-05-14 18:25:00,66.8,41.0,30.06,SW,223,8.1,8.1,39,0.00,CLR,,0.00,WeatherDisplay:10.37,2013-05-14 22:25:00,
2013-05-14 18:30:00,66.8,41.7,30.05,SW,214,6.0,6.0,40,0.00,CLR,,0.00,WeatherDisplay:10.37,2013-05-14 22:30:00,
2013-05-14 18:35:00,66.6,43.4,30.05,SW,223,3.5,3.5,43,0.00,CLR,,0.00,WeatherDisplay:10.37,2013-05-14 22:35:00,
2013-05-14 18:40:00,66.4,43.2,30.05,SSW,209,3.5,3.5,43,0.00,CLR,,0.00,WeatherDisplay:10.37,2013-05-14 22:40:00,
2013-05-14 18:45:00,66.2,43.6,30.06,SE,134,3.5,3.5,44,0.00,CLR,,0.00,WeatherDisplay:10.37,2013-05-14 22:45:00,
2013-05-14 18:50:00,66.0,43.5,30.05,SSW,209,4.0,4.0,44,0.00,CLR,,0.00,WeatherDisplay:10.37,2013-05-14 22:50:00,
2013-05-14 18:55:00,65.6,45.4,30.05,SSW,209,3.5,3.5,48,0.00,CLR,,0.00,WeatherDisplay:10.37,2013-05-14 22:55:00,
2013-05-14 19:00:00,65.5,43.6,30.04,SSW,209,5.8,5.8,45,0.00,CLR,,0.00,WeatherDisplay:10.37,2013-05-14 23:00:00,
2013-05-14 19:05:00,65.2,45.5,30.04,SSW,209,3.5,0.0,49,0.00,CLR,,0.00,WeatherDisplay:10.37,2013-05-14 23:05:00,
2013-05-14 19:10:00,64.9,45.8,30.04,SSW,209,4.0,4.0,50,0.00,CLR,,0.00,WeatherDisplay:10.37,2013-05-14 23:10:00,
2013-05-14 19:15:00,65.1,45.5,30.04,SSW,208,0.0,0.0,49,0.00,CLR,,0.00,WeatherDisplay:10.37,2013-05-14 23:15:00,
2013-05-14 19:20:00,65.2,43.9,30.04,SSW,208,3.5,3.5,46,0.00,CLR,,0.00,WeatherDisplay:10.37,2013-05-14 23:20:00,
2013-05-14 19:25:00,65.2,46.1,30.05,SSW,207,1.2,0.0,50,0.00,CLR,,0.00,WeatherDisplay:10.37,2013-05-14 23:25:00,
2013-05-14 19:30:00,64.8,45.2,30.05,SSW,208,0.0,0.0,49,0.00,CLR,,0.00,WeatherDisplay:10.37,2013-05-14 23:30:00,
2013-05-14 19:35:00,64.4,45.9,30.04,SSW,207,3.5,3.5,51,0.00,CLR,,0.00,WeatherDisplay:10.37,2013-05-14 23:35:00,
2013-05-14 19:40:00,64.2,45.7,30.04,SSW,207,3.5,3.5,51,0.00,CLR,,0.00,WeatherDisplay:10.37,2013-05-14 23:40:00,
2013-05-14 19:45:00,64.0,47.0,30.03,SSW,207,0.0,0.0,54,0.00,CLR,,0.00,WeatherDisplay:10.37,2013-05-14 23:45:00,
2013-05-14 19:50:00,63.7,45.7,30.03,SSW,207,3.5,0.0,52,0.00,CLR,,0.00,WeatherDisplay:10.37,2013-05-14 23:50:00,
2013-05-14 19:55:00,63.3,45.4,30.04,SSW,207,3.5,3.5,52,0.00,CLR,,0.00,WeatherDisplay:10.37,2013-05-14 23:55:00,
2013-05-14 20:00:00,62.3,48.2,30.04,SSW,207,0.0,0.0,60,0.00,CLR,,0.00,WeatherDisplay:10.37,2013-05-15 00:00:00,
2013-05-14 20:05:00,60.9,48.6,30.04,SSW,207,1.2,0.0,64,0.00,CLR,,0.00,WeatherDisplay:10.37,2013-05-15 00:05:00,
2013-05-14 20:10:00,59.6,49.4,30.04,SSW,207,0.0,0.0,69,0.00,CLR,,0.00,WeatherDisplay:10.37,2013-05-15 00:10:00,
2013-05-14 20:15:00,58.4,48.7,30.05,SSW,209,0.0,0.0,70,0.00,CLR,,0.00,WeatherDisplay:10.37,2013-05-15 00:15:00,
2013-05-14 20:20:00,58.0,48.3,30.05,SSW,209,0.0,0.0,70,0.00,CLR,,0.00,WeatherDisplay:10.37,2013-05-15 00:20:00,
2013-05-14 20:25:00,57.5,48.2,30.04,SSW,209,0.0,0.0,71,0.00,CLR,,0.00,WeatherDisplay:10.37,2013-05-15 00:25:00,
2013-05-14 20:30:00,57.1,48.5,30.04,SSW,209,0.0,0.0,73,0.00,CLR,,0.00,WeatherDisplay:10.37,2013-05-15 00:30:00,
2013-05-14 20:35:00,56.9,49.4,30.04,SSW,209,0.0,0.0,76,0.00,CLR,,0.00,WeatherDisplay:10.37,2013-05-15 00:35:00,
2013-05-14 20:40:00,56.4,48.9,30.04,SSW,209,0.0,0.0,76,0.00,CLR,,0.00,WeatherDisplay:10.37,2013-05-15 00:40:00,
2013-05-14 20:45:00,56.2,48.7,30.04,SSW,209,0.0,0.0,76,0.00,CLR,,0.00,WeatherDisplay:10.37,2013-05-15 00:45:00,
2013-05-14 20:50:00,55.7,48.6,30.04,SSW,209,0.0,0.0,77,0.00,CLR,,0.00,WeatherDisplay:10.37,2013-05-15 00:50:00,
2013-05-14 20:55:00,55.3,48.6,30.04,SSW,209,1.0,1.0,78,0.00,CLR,,0.00,WeatherDisplay:10.37,2013-05-15 00:55:00,
2013-05-14 21:00:00,55.8,47.3,30.04,SSW,209,1.0,1.0,73,0.00,CLR,,0.00,WeatherDisplay:10.37,2013-05-15 01:00:00,
2013-05-14 21:05:00,55.8,48.0,30.04,SSW,209,0.0,0.0,75,0.00,CLR,,0.00,WeatherDisplay:10.37,2013-05-15 01:05:00,
2013-05-14 21:11:00,55.8,48.0,30.03,SSW,209,0.0,0.0,75,0.00,CLR,,0.00,WeatherDisplay:10.37,2013-05-15 01:11:00,
2013-05-14 21:16:00,55.5,48.4,30.04,SSW,209,0.0,0.0,77,0.00,CLR,,0.00,WeatherDisplay:10.37,2013-05-15 01:16:00,
2013-05-14 21:21:00,55.1,48.0,30.04,SSW,209,0.0,0.0,77,0.00,CLR,,0.00,WeatherDisplay:10.37,2013-05-15 01:21:00,
2013-05-14 21:26:00,55.3,48.2,30.04,SSW,209,0.0,0.0,77,0.00,CLR,,0.00,WeatherDisplay:10.37,2013-05-15 01:26:00,
2013-05-14 21:31:00,55.4,47.6,30.04,SSW,209,0.0,0.0,75,0.00,CLR,,0.00,WeatherDisplay:10.37,2013-05-15 01:31:00,
2013-05-14 21:36:00,56.0,48.2,30.04,SSW,209,3.5,3.5,75,0.00,CLR,,0.00,WeatherDisplay:10.37,2013-05-15 01:36:00,
2013-05-14 21:41:00,56.0,47.5,30.04,SSW,209,0.0,0.0,73,0.00,CLR,,0.00,WeatherDisplay:10.37,2013-05-15 01:41:00,
2013-05-14 21:46:00,55.7,46.8,30.05,SSW,209,1.2,1.2,72,0.00,CLR,,0.00,WeatherDisplay:10.37,2013-05-15 01:46:00,
2013-05-14 21:51:00,56.2,46.5,30.05,SSW,209,3.5,3.5,70,0.00,CLR,,0.00,WeatherDisplay:10.37,2013-05-15 01:51:00,
2013-05-14 21:56:00,55.7,46.4,30.05,SSW,209,0.0,0.0,71,0.00,CLR,,0.00,WeatherDisplay:10.37,2013-05-15 01:56:00,
2013-05-14 22:01:00,55.2,47.4,30.05,SSW,209,0.0,0.0,75,0.00,CLR,,0.00,WeatherDisplay:10.37,2013-05-15 02:01:00,
2013-05-14 22:06:00,54.9,47.8,30.05,SSW,209,0.0,0.0,77,0.00,CLR,,0.00,WeatherDisplay:10.37,2013-05-15 02:06:00,
2013-05-14 22:11:00,54.5,48.1,30.04,SSW,209,0.0,0.0,79,0.00,CLR,,0.00,WeatherDisplay:10.37,2013-05-15 02:11:00,
2013-05-14 22:16:00,54.2,48.2,30.04,SSW,209,2.3,2.3,80,0.00,CLR,,0.00,WeatherDisplay:10.37,2013-05-15 02:16:00,
2013-05-14 22:21:00,54.2,47.1,30.03,SSW,209,0.0,0.0,77,0.00,CLR,,0.00,WeatherDisplay:10.37,2013-05-15 02:21:00,
2013-05-14 22:26:00,55.4,46.2,30.03,SSW,209,3.0,3.0,71,0.00,CLR,,0.00,WeatherDisplay:10.37,2013-05-15 02:26:00,
2013-05-14 22:31:00,55.8,46.2,30.03,SSW,209,0.0,0.0,70,0.00,CLR,,0.00,WeatherDisplay:10.37,2013-05-15 02:31:00,
2013-05-14 22:36:00,56.1,46.1,30.03,SSW,209,4.6,4.6,69,0.00,CLR,,0.00,WeatherDisplay:10.37,2013-05-15 02:36:00,
2013-05-14 22:41:00,56.3,45.5,30.03,South,184,6.0,6.0,67,0.00,CLR,,0.00,WeatherDisplay:10.37,2013-05-15 02:41:00,
2013-05-14 22:46:00,56.4,45.6,30.02,South,184,2.3,0.0,67,0.00,CLR,,0.00,WeatherDisplay:10.37,2013-05-15 02:46:00,
2013-05-14 22:51:00,56.4,45.2,30.03,South,185,0.0,0.1,66,0.00,CLR,,0.00,WeatherDisplay:10.37,2013-05-15 02:51:00,
2013-05-14 22:56:00,56.2,45.4,30.03,South,185,0.0,0.0,67,0.00,CLR,,0.00,WeatherDisplay:10.37,2013-05-15 02:56:00,
2013-05-14 23:01:00,55.6,46.0,30.03,South,185,0.0,0.0,70,0.00,CLR,,0.00,WeatherDisplay:10.37,2013-05-15 03:01:00,
2013-05-14 23:06:00,54.6,46.1,30.03,South,185,0.0,0.0,73,0.00,CLR,,0.00,WeatherDisplay:10.37,2013-05-15 03:06:00,
2013-05-14 23:11:00,54.2,45.7,30.03,South,184,3.5,3.5,73,0.00,CLR,,0.00,WeatherDisplay:10.37,2013-05-15 03:11:00,
2013-05-14 23:16:00,54.6,46.1,30.03,South,184,3.5,0.0,73,0.00,CLR,,0.00,WeatherDisplay:10.37,2013-05-15 03:16:00,
2013-05-14 23:21:00,54.6,46.1,30.03,South,185,1.2,1.2,73,0.00,CLR,,0.00,WeatherDisplay:10.37,2013-05-15 03:21:00,
2013-05-14 23:26:00,54.9,45.7,30.03,South,186,3.5,0.0,71,0.00,CLR,,0.00,WeatherDisplay:10.37,2013-05-15 03:26:00,
2013-05-14 23:31:00,55.2,45.2,30.03,South,186,3.5,3.5,69,0.00,CLR,,0.00,WeatherDisplay:10.37,2013-05-15 03:31:00,
2013-05-14 23:36:00,55.3,45.3,30.03,South,186,0.0,0.0,69,0.00,CLR,,0.00,WeatherDisplay:10.37,2013-05-15 03:36:00,
2013-05-14 23:41:00,55.1,45.1,30.03,South,186,0.0,0.0,69,0.00,CLR,,0.00,WeatherDisplay:10.37,2013-05-15 03:41:00,
2013-05-14 23:47:00,54.8,45.6,30.03,South,186,1.0,0.0,71,0.00,CLR,,0.00,WeatherDisplay:10.37,2013-05-15 03:47:00,
2013-05-14 23:52:00,53.7,46.3,30.03,South,186,0.0,0.0,76,0.00,CLR,,0.00,WeatherDisplay:10.37,2013-05-15 03:52:00,
2013-05-14 23:57:00,52.8,46.1,30.03,South,186,0.0,0.0,78,0.00,CLR,,0.00,WeatherDisplay:10.37,2013-05-15 03:57:00,